Weather in Mezhgorye

Russia / Republic of Bashkortostan     54°14′23″N   57°57′40″E
temp.,
°C
wind,
m/s
gust,
m/s
humid.,
%
clouds,
%
prec.,
mm/h
press.,
hPa
HPBL,
m
25 february, thu
thu2523:00−25nnw2898100 0.3 1023425
02:00−28n22100100 0.0 102644
05:00−30nne229991 0.0 102920
08:00−30n12930 0.0 103119
11:00−21nnw12800 0.0 1032206
14:00−16wnw22750 0.0 1031526
17:00−17w22843 0.0 1030398
20:00−24sw01978 0.0 103120
26 february, fri
fri2623:00−25sse11874 0.0 103120
02:00−25sse12830 0.0 103020
05:00−25sse22811 0.0 103020
08:00−25sse227685 0.0 102820
11:00−18s237679 0.0 1027237
14:00−15s248691 0.0 1024536
17:00−15s248895 0.1 1023617
20:00−18sse229698 0.1 102223
27 february, sat
sat2723:00−19se229797 0.1 102134
02:00−21se229794 0.1 101841
05:00−20se339797 0.1 1014114
08:00−18se3497100 0.9 1010137
11:00−16se3495100 3.4 1007188
14:00−12se3593100 1.8 1004342
17:00−9se2393100 2.0 1002219
20:00−11ese229597 0.3 100147
28 february, sun
sun2823:00−8sse259697 0.8 1001138
02:00−7s2696100 1.0 1000173
05:00−6s2497100 1.8 1000134
08:00−7s2497100 0.7 1000144
11:00−4ssw3595100 1.4 1000384
14:00−3sw2593100 0.6 1001566
17:00−3wsw2396100 1.6 1002295
20:00−5sw1198100 1.1 100321
1 march, mon
mon123:00−6ssw1198100 1.7 100621
02:00−8sse119793 0.2 100721
05:00−9ese119791 0.3 100921
08:00−10sse009795 0.2 101121
11:00−6w119496 0.3 1013276
14:00−4w2291100 0.2 1014431
17:00−6wnw2294100 0.4 1014407
20:00−10wnw1298100 0.2 101624